This is the latest recevied weather packets stored in our database for station/object KR4KUV. If no packets are shown the sender has not sent any weather packets the latest 10 day(s).
| Time | Temp. | Humidity | Pressure | Rain* | Wind** | Luminosity | Snow |
|---|---|---|---|---|---|---|---|
| 1788116887 | 30° C | 67% | 1023.1 hPa | 0 mm | - | 661 W/m² | - |
| 1788116581 | 29.44° C | 68% | 1023.1 hPa | 0 mm | - | 666 W/m² | - |
| 1788116280 | 28.33° C | 72% | 1023.3 hPa | 0 mm | - | 706 W/m² | - |
| 1788115975 | 30° C | 70% | 1023.2 hPa | 0 mm | - | 313 W/m² | - |
| 1788115675 | 29.44° C | 69% | 1023.3 hPa | 0 mm | - | 704 W/m² | - |
| 1788115374 | 29.44° C | 69% | 1023.3 hPa | 0 mm | - | 711 W/m² | - |
| 1788115070 | 28.89° C | 69% | 1023.7 hPa | 0 mm | - | 704 W/m² | - |
| 1788114764 | 29.44° C | 68% | 1023.6 hPa | 0 mm | - | 706 W/m² | - |
| 1788114459 | 29.44° C | 72% | 1023.7 hPa | 0 mm | - | 715 W/m² | - |
| 1788114155 | 28.89° C | 71% | 1023.9 hPa | 0 mm | - | 752 W/m² | - |
| 1788113851 | 29.44° C | 69% | 1023.9 hPa | 0 mm | - | 577 W/m² | - |
| 1788113546 | 29.44° C | 68% | 1023.8 hPa | 0 mm | - | 755 W/m² | - |
| 1788113245 | 30° C | 71% | 1024 hPa | 0 mm | - | 751 W/m² | - |
| 1788112940 | 29.44° C | 69% | 1024.3 hPa | 0 mm | - | 789 W/m² | - |
| 1788112634 | 28.89° C | 73% | 1024.4 hPa | 0 mm | - | 749 W/m² | - |
| 1788112329 | 28.89° C | 74% | 1024.4 hPa | 0 mm | - | 569 W/m² | - |
| 1788112023 | 28.33° C | 73% | 1024.7 hPa | 0 mm | - | 752 W/m² | - |
| 1788111719 | 28.89° C | 71% | 1024.7 hPa | 0 mm | - | 724 W/m² | - |
| 1788111414 | 28.33° C | 75% | 1024.5 hPa | 0 mm | - | 720 W/m² | - |
| 1788111109 | 27.22° C | 76% | 1024.7 hPa | 0 mm | - | 727 W/m² | - |
| 1788110806 | 26.67° C | 79% | 1024.9 hPa | 0 mm | - | 188 W/m² | - |
| 1788110502 | 26.67° C | 79% | 1024.5 hPa | 0 mm | - | 199 W/m² | - |
| 1788110202 | 27.22° C | 76% | 1024.8 hPa | 0 mm | - | 254 W/m² | - |
| 1788109897 | 27.22° C | 77% | 1024.9 hPa | 0 mm | - | 459 W/m² | - |
| 1788109592 | 27.22° C | 77% | 1024.9 hPa | 0 mm | - | 234 W/m² | - |
* Rain latest hour (hover to see other rain measurements)
** Current wind speed in m/s (hover to see current wind gust speed)